Weather Service Report


154 
ASUS42 KCAE 312010
RWRCAE
REGIONAL WEATHER ROUNDUP
NATIONAL WEATHER SERVICE COLUMBIA SC
400 PM EDT THU JUL 31 2014

NOTE: "FAIR" INDICATES FEW OR NO CLOUDS BELOW 12,000 FEET WITH NO
SIGNIFICANT WEATHER AND/OR OBSTRUCTIONS TO VISIBILITY.

NOT ALL STATIONS ARE QUALITY CONTROLLED BY THE NATIONAL 
WEATHER SERVICE. USE DATA WITH CAUTION...ESPECIALLY 
DEWPOINT OBSERVATIONS.

SCZ001>056-GAZ040-063>065-077-312100-
...UPSTATE SOUTH CAROLINA...
  
CITY           SKY/WX    TMP DP  RH WIND       PRES   REMARKS
ANDERSON       CLOUDY    67  64  90 NE5       30.12F                  
LIBERTY        LGT RAIN  69  32  25 NE8       30.13F                  
SPARTANBURG    LGT RAIN  70  70 100 N7        30.13S                  
CLEMSON        CLOUDY    72  61  68 E9        30.14S                  
GREENVILLE     CLOUDY    68  64  87 N13       30.14F                  
GREENWOOD      CLOUDY    74  67  78 N13       30.10F                  
GREER          CLOUDY    67  65  93 N8        30.13F                  
ROCK HILL      CLOUDY    77  70  79 N9        30.11F                  
CHESTER        CLOUDY    81  72  74 N8        30.11F                  
LAURENS        FAIR      73  68  83 N9        30.10F                  


...CENTRAL SOUTH CAROLINA...
  
CITY           SKY/WX    TMP DP  RH WIND       PRES   REMARKS
COLUMBIA APT   LGT RAIN  82  71  69 E7        30.05F                  
COLUMBIA OWENS CLOUDY    82  70  66 CALM      30.06F                  
DARLINGTON     CLOUDY    84  64  51 E9        30.08F                  
FLORENCE       HVY RAIN  78  69  73 E6        30.07S                  
MCENTIRE ANGB  HVY RAIN  75  68  78 SE15G25   30.09R                  
ORANGEBURG     CLOUDY    77  70  79 E6        30.06S                  
SUMTER SHAW    TSTM      77  73  88 S12       30.06R                  
NEWBERRY       MOCLDY    82  66  57 E7        30.09F                  
AIKEN          LGT RAIN  72  72 100 NE5       30.09F                  
BARNWELL       FAIR      79  70  73 E14       30.05S                  
MANNING        CLOUDY    77 N/A N/A CALM      30.06F                  
CAMDEN         FAIR      82  66  57 E7        30.07F                  
LANCASTER      FAIR      84  68  58 E9        30.09F                  
WINNSBORO      FAIR      82  64  54 E10G16    30.07F                  


...EASTERN AND COASTAL SOUTH CAROLINA...
  
CITY           SKY/WX    TMP DP  RH WIND       PRES   REMARKS
MYRTLE BEACH   PTSUNNY   81  70  69 E10       30.07F                  
N MYRTLE BCH   LGT RAIN  82  70  66 E10G16    30.07F                  
CONWAY           N/A     77  72  83 E3        30.09R                  
MARION         FAIR      82  68  61 E5        30.07S                  
HARTSVILLE     MOCLDY    86  43  22 E8        30.08F                  
FLORENCE       HVY RAIN  78  69  73 E6        30.07S                  
DARLINGTON     CLOUDY    84  64  51 E9        30.08F                  
CHARLESTON APT TSTM      76  72  87 E3        30.05F FOG              
MOUNT PLEASANT LGT RAIN  82  75  78 E12       30.03R                  
WALTERBORO     CLOUDY    79  77  94 E9        30.05S                  
BEAUFORT       PTSUNNY   79  73  82 E9        30.02S                  


...EASTERN GEORGIA...
  
CITY           SKY/WX    TMP DP  RH WIND       PRES   REMARKS
AUGUSTA BUSH F CLOUDY    77  70  79 E6        30.02F                  
AUGUSTA DANIEL CLOUDY    76  71  85 NE7       30.04F                  
THOMSON        CLOUDY    74  74 100 CALM      30.11S                  
WASHINGTON     CLOUDY    81  79  94 NE8       30.06S                  
CLAXTON        FAIR      88  75  66 E7        29.98F HX  97           
SYLVANIA       DRIZZLE   74  72  93 CALM      30.03S                  
STATESBORO     PTSUNNY   84  72  67 E10       30.00S                  
SAVANNAH       HVY RAIN  75  72  88 N17       30.00R VSB 1            


...SOUTHERN NORTH CAROLINA...
  
CITY           SKY/WX    TMP DP  RH WIND       PRES   REMARKS
CHARLOTTE      CLOUDY    76  67  73 N8        30.13S                  
MONROE         CLOUDY    81  65  58 CALM      30.10F                  
WADESBORO      CLOUDY    84  64  50 CALM      30.09F                  
ROCKINGHAM       N/A     82  63  51 E6        30.09S                  
RUTHERFORDTON  LGT RAIN  66  64  93 W9        30.18F                  
ASHEVILLE      CLOUDY    67  61  81 SE5       30.20S                  

$$

Return to Home page


Western Regional Climate Center, wrcc@dri.edu